Tracking 30995 objects as of 7-Jul-2025
HD Live streaming from Space Station
objects crossing your sky now

COSMOS 839 DEB

Track COSMOS 839 DEB now!
10-day predictions


NORAD ID: 13515
Int'l Code: 1976-067BC
Perigee: 981.4 km
Apogee: 2,027.2 km
Inclination: 65.9 °
Period: 115.9 minutes
Semi major axis: 7875 km
RCS: 0.0107 m2 (small)
Launch date: July 8, 1976
Source: Commonwealth of Independent States (former USSR) (CIS)
Launch site: PLESETSK MISSILE AND SPACE COMPLEX (PKMTR)

Note: This is SATELLITE DEBRIS
Your satellite tracking list
Your tracking list is empty




NASA's NSSDC Master Catalog

Two Line Element Set (TLE):
1 13515U 76067BC  25185.89318676  .00000527  00000-0  19567-2 0  9994
2 13515  65.9010 339.4167 0663979 260.6724 264.1424 12.42233103 37091
Source of the keplerian elements: AFSPC